This is the latest recevied weather packets stored in our database for station/object N7CW. If no packets are shown the sender has not sent any weather packets the latest 10 day(s).
| Time | Temp. | Humidity | Pressure | Rain* | Wind** | Luminosity | Snow |
|---|---|---|---|---|---|---|---|
| 1777860927 | 18.33° C | 25% | 1014 hPa | 0 mm | - | 4 W/m² | - |
| 1777860623 | 18.33° C | 25% | 1014 hPa | 0 mm | - | 7 W/m² | - |
| 1777860320 | 18.89° C | 25% | 1013.9 hPa | 0 mm | - | 10 W/m² | - |
| 1777860017 | 18.89° C | 25% | 1013.8 hPa | 0 mm | - | 11 W/m² | - |
| 1777859713 | 18.89° C | 25% | 1014 hPa | 0 mm | - | 16 W/m² | - |
| 1777859409 | 19.44° C | 25% | 1013.5 hPa | 0 mm | - | 21 W/m² | - |
| 1777859105 | 19.44° C | 24% | 1014 hPa | 0 mm | - | 25 W/m² | - |
| 1777858803 | 19.44° C | 24% | 1013.9 hPa | 0 mm | - | 29 W/m² | - |
| 1777858501 | 20° C | 24% | 1013.9 hPa | 0 mm | - | 35 W/m² | - |
| 1777858196 | 20° C | 24% | 1013.9 hPa | 0 mm | - | 41 W/m² | - |
| 1777857895 | 20° C | 25% | 1014 hPa | 0 mm | - | 49 W/m² | - |
| 1777857592 | 20° C | 25% | 1013.5 hPa | 0 mm | - | 58 W/m² | - |
| 1777857288 | 20.56° C | 25% | 1013.9 hPa | 0 mm | - | 68 W/m² | - |
| 1777856984 | 20.56° C | 24% | 1013.8 hPa | 0 mm | - | 82 W/m² | - |
| 1777856681 | 20.56° C | 24% | 1013.8 hPa | 0 mm | - | 92 W/m² | - |
| 1777856377 | 20.56° C | 25% | 1013.9 hPa | 0 mm | - | 104 W/m² | - |
| 1777856073 | 20.56° C | 24% | 1013.8 hPa | 0 mm | - | 117 W/m² | - |
| 1777855771 | 20.56° C | 24% | 1014.2 hPa | 0 mm | - | 129 W/m² | - |
| 1777855469 | 21.11° C | 24% | 1014.1 hPa | 0 mm | - | 140 W/m² | - |
| 1777855165 | 21.11° C | 24% | 1014.2 hPa | 0 mm | - | 156 W/m² | - |
| 1777854862 | 20.56° C | 23% | 1014.4 hPa | 0 mm | - | 170 W/m² | - |
| 1777854559 | 21.11° C | 24% | 1014.1 hPa | 0 mm | - | 188 W/m² | - |
| 1777854255 | 21.67° C | 24% | 1014.4 hPa | 0 mm | - | 196 W/m² | - |
| 1777853953 | 21.11° C | 25% | 1014.4 hPa | 0 mm | - | 208 W/m² | - |
| 1777853650 | 21.11° C | 24% | 1013.9 hPa | 0 mm | - | 214 W/m² | - |
* Rain latest hour (hover to see other rain measurements)
** Current wind speed in m/s (hover to see current wind gust speed)